MMC

 

 

Mario Martinez Classic - TRAP./TRAINNIG/AT LOFT

Station: 1 miles - T Race

Distance: 1 Miles

Release: 20-Jun-2022 11:30

Weather Release:    Arrival:

Wind at Release:     Wind at Arrival:

Temp at Release: °    Temp at Arrival: °

Lofts: 157

Birds: 800

Clocked: 803

Good Luck to Everyone!
Drops Pos Breeder Pigeon Name Color Sex Ent Arrival Speed To Win Elg Pd
1 LFernandez-Autofix-AKA - CA 0162-AU22-TCH BBWF C 1 11:42:06.60 145.334 00:00:00 Yes
2 850MERICA SYNDICATE - FL 8988-AU22-VITA BB H 1 11:42:21.30 142.452 00:00:15 Yes
3 Gomez Loft - CA 6559-AU22-CHP SLT H 1 11:42:48.70 137.375 00:00:42 Yes
4 850MERICA SYNDICATE - FL 54909-AU22-ARPU BC H 2 11:42:52.80 136.646 00:00:46 Yes
5 San Andres - CA 0828-AU22-FMT BB H 1 11:43:08.30 133.959 00:01:02 Yes
6 Gapo Loft - CA 7299-AU22-ARPU BC H 1 11:46:34.00 106.237 00:04:27 Yes
7 BLUE MEGAN LOFT - CA 15081-AU22-JEDD S I D E B E T BC H 1 11:47:26.00 100.956 00:05:19 Yes
8 Vangruen Syndicate - CA 2231-AU22-VANG BB H 1 11:47:39.00 99.717 00:05:32 Yes
9 Ee Martin Lofts - CA 17638-AU22-ARPU BB H 1 11:48:10.30 96.854 00:06:04 Yes
10 Ramos Family Loft - CA 32160-AU22-JEDD BBWF H 1 11:52:16.80 78.995 00:10:10 Yes
11 R M C Loft - CA 1048-PH22-RMC BB H 1 11:52:26.70 78.414 00:10:20 Yes
12 Vallejo Loft - CA 0977-AU22-SFPC BB C 1 11:52:31.20 78.153 00:10:25 Yes
13 3 Stars & A Sun - TX 46174-AU22-AA BB C 1 11:52:32.50 78.078 00:10:26 Yes
14 R M C Loft - CA 1008-PH22-RMC BC H 2 11:52:41.50 77.562 00:10:35 Yes
15 R M C Loft - CA 1069-PH22-RMC BB H 3 11:52:47.80 77.204 00:10:41 Yes
16 Osty Loft - CA 0029-AU22-OSTY DC C 1 11:52:50.60 77.047 00:10:44 Yes
17 Ee Martin Lofts - CA 17660-AU22-ARPU BB C 2 11:53:00.40 76.500 00:10:54 Yes
18 Vallejo Loft - CA 0969-AU22-SFPC BB C 2 11:53:03.10 76.350 00:10:57 Yes
19 Raizen Loft - WA 4424-AU22-RAIZ BB H 1 11:53:10.30 75.955 00:11:04 Yes
20 850MERICA SYNDICATE - FL 10765-AU22-JEDD BB H 3 11:53:11.50 75.889 00:11:05 Yes
21 Vangruen Syndicate - CA 2243-AU22-VANG BB H 2 11:53:12.80 75.818 00:11:06 Yes
22 Ee Martin Lofts - CA 0996-AU22-SFPC BCWF C 3 11:53:17.70 75.553 00:11:11 Yes
23 Boker 69 Loft - CA 2565-AU22-TULE BB H 1 11:53:18.00 75.536 00:11:11 Yes
24 Las Vegas Syndicate - NV 0079-AU22-ESCO BB H 1 11:53:35.60 74.597 00:11:29 Yes
25 BLUE MEGAN LOFT - CA 15095-AU22-JEDD C H O C O L A T E SILV H 2 11:53:36.70 74.539 00:11:30 Yes
26 LFernandez-Autofix-AKA - CA 0165-AU22-TCH BB C 2 11:53:42.90 74.215 00:11:36 Yes
- !-1078-PH22-RMC -! 11:53:44.60 74.126
27 Holts Loft - NC 1072-AU22-HOLT BC C 1 11:53:49.60 73.867 00:11:43 Yes
28 Paco Loft - CA 0219-AU22-PACO BB C 1 11:53:54.60 73.609 00:11:48 Yes
29 Kereru Whare - CA 0119-AU22-BISH DCWF C 1 11:54:20.60 72.299 00:12:14 Yes
30 Kereru Whare - CA 0132-AU22-BISH GRIZ H 2 11:55:29.90 69.024 00:13:23 Yes
31 Holts Loft - NC 1006-AU22-HOLT BC H 2 11:56:11.80 67.184 00:14:05 Yes
32 Baldwin & Tillson - NC 2275-AU22-TENT SLT C 1 12:02:40.30 53.869 00:20:34 Yes
33 Golden Knights Loft - CA 17495-AU22-ARPU BB C 1 12:05:33.00 49.508 00:23:26 Yes
34 IBRATSYNDICATE - CA 0193-AU22-IBRA RC H 1 12:08:09.30 46.128 00:26:03 Yes
35 Baldwin & Tillson - NC 2258-AU22-TENT BBWF C 2 12:11:45.90 42.141 00:29:39 Yes
36 El Tepa - CA 1764-AU22-WSJ BB H 1 12:25:52.10 31.503 00:43:45 Yes
37 Juan Guerrero - CA 13161-AU22-BELG BC H 1 12:43:59.30 23.788 01:01:53 Yes
38 Apr Loft - CA 2469-AU22-SFR BB H 1 12:44:00.60 23.781 01:01:54 Yes
39 Vangruen Syndicate - CA 0776-AU22-MOJA BCWF H 3 12:44:02.60 23.770 01:01:56 Yes
40 Golden State Syndicate - CA 30798-AU22-AA This Is It! BB C 1 12:44:05.50 23.754 01:01:59 Yes
41 Las Vegas Syndicate - NV 103214-AU22-ARPU BB H 2 12:44:06.00 23.752 01:01:59 Yes
42 Alfonso Gonzalez - CA 2413-AU22-FORT BBWF C 1 12:44:06.20 23.751 01:02:00 Yes
43 Osty Loft - CA 0028-AU22-OSTY BC H 2 12:44:07.00 23.746 01:02:00 Yes
44 850MERICA SYNDICATE - FL 54915-AU22-ARPU BBWF H 4 12:44:08.10 23.740 01:02:02 Yes
45 Alfonso Gonzalez - CA 2419-AU22-FORT BC C 2 12:44:11.00 23.725 01:02:04 Yes
46 Vallejo Loft - CA 0965-AU22-SFPC BC H 3 12:44:12.40 23.718 01:02:06 Yes
47 Robin Hood Loft - CA 11859-AU22-JEDD Luningning🇵🇭 BC H 1 12:44:13.50 23.712 01:02:07 Yes
48 850MERICA SYNDICATE - FL 56151-AU22-ARPU BB H 5 12:44:15.10 23.703 01:02:09 Yes
49 Mendoza Loft - CA 0033-AU22-OSTY BB C 1 12:44:16.00 23.698 01:02:09 Yes
50 Holts Loft - NC 0920-AU22-HOLT BB C 3 12:44:16.50 23.696 01:02:10 Yes
51 Vallejo Loft - CA 0910-AU22-SFPC BC H 4 12:44:36.10 23.592 01:02:29 Yes
52 Chilango - CA 1355-AU22-SFPC BLAK H 1 12:44:38.60 23.579 01:02:32 Yes
53 Ash Her About Pigeon Tv - CA 16033-AU22-JEDD MARITES BB H 1 12:44:47.40 23.533 01:02:41 Yes
54 El Tepa - CA 1765-AU22-WSJ BB H 2 12:44:50.50 23.516 01:02:44 Yes
55 El Tepa - CA 1756-AU22-WSJ BB H 3 12:45:20.80 23.359 01:03:14 Yes
56 The Chosen Few - MI 0263-AU22-CHOS 504 x 7213 BB C 1 12:45:29.80 23.312 01:03:23 Yes
57 Vallejo Loft - CA 0982-AU22-SFPC BC H 5 12:48:59.50 22.281 01:06:53 Yes
58 Gomez Loft - CA 6568-AU22-CHP DC H 2 12:49:21.40 22.178 01:07:15 Yes
59 Paco Loft - CA 0218-AU22-PACO BB H 2 12:49:31.50 22.131 01:07:25 Yes
60 The Chosen Few - MI 0271-AU22-CHOS 8059 x 306 BB H 2 12:49:45.30 22.068 01:07:39 Yes
61 Gomez & Martin Loft - CA 3450-AU22-FORT BC C 1 12:49:46.30 22.063 01:07:40 Yes
62 eloft - CA 13670-AU22-JEDD BC C 1 12:50:03.80 21.983 01:07:57 Yes
63 Juan Guerrero - CA 13162-AU22-BELG BC C 2 12:50:13.00 21.941 01:08:06 Yes
64 Baldwin & Tillson - NC 2266-AU22-TENT BBWF H 3 12:51:04.10 21.710 01:08:58 Yes
65 The Chosen Few - MI 0270-AU22-CHOS 9047 x 1141 BB H 3 12:51:05.30 21.705 01:08:59 Yes
66 Gomez Loft - CA 6567-AU22-CHP DC H 3 12:51:05.80 21.702 01:08:59 Yes
67 Baldwin & Tillson - NC 2274-AU22-TENT BB H 4 12:51:16.80 21.654 01:09:10 Yes
68 R Y M LOFT HUGO AMESCUA - CA 1110-AU22-SFPC BB H 1 12:51:19.80 21.640 01:09:13 Yes
69 eloft - CA 13671-AU22-JEDD BB C 2 12:51:43.10 21.537 01:09:37 Yes
70 Baldwin & Tillson - NC 2267-AU22-TENT BBWF H 5 12:51:50.30 21.506 01:09:44 Yes
71 Baldwin & Tillson - NC 2153-AU22-TENT BBPT C 6 12:51:54.90 21.486 01:09:48 Yes
72 Baldwin & Tillson - NC 2152-AU22-TENT BB C 7 12:52:05.60 21.439 01:09:59 Yes
73 The Chosen Few - MI 0279-AU22-CHOS 130 x 83109 BB H 4 12:52:09.20 21.423 01:10:03 Yes
74 Baldwin & Tillson - NC 2276-AU22-TENT BB H 8 12:52:44.00 21.273 01:10:37 Yes
75 Baldwin & Tillson - NC 2259-AU22-TENT BB C 9 12:53:24.20 21.102 01:11:18 Yes
76 Baldwin & Tillson - NC 2278-AU22-TENT BB C 10 12:53:34.80 21.058 01:11:28 Yes
77 Baldwin & Tillson - NC 2237-AU22-TENT BB H 11 12:54:10.60 20.908 01:12:04 Yes
78 Baldwin & Tillson - NC 2091-AU22-TENT BBWF C 12 12:54:44.90 20.767 01:12:38 Yes
79 Hurtado Family Loft - CA 22010-MX22-FMC Bull dog % 🇲🇽 BBWF H 1 13:00:13.10 19.508 01:18:07 Yes
80 G D L - L O F T - G T - CA 20011-AU22-DV BC H 1 13:00:34.60 19.431 01:18:28 Yes
81 G D L - L O F T - G T - CA 29000-AU22-DV GDL ANGEL GIRL BC H 2 13:00:56.50 19.353 01:18:50 Yes
82 Ramos Family Loft - CA 32159-AU22-JEDD BB H 2 13:01:09.90 19.306 01:19:03 Yes
83 FRANCOS CLASSIC - CA 2418-AU22-SFR BB H 1 13:01:26.10 19.249 01:19:19 Yes
84 Sal Perez - CA 2037-AU22-SFR BCWF C 1 13:01:46.10 19.179 01:19:39 Yes
85 Texas-Syndicate-Loft - TX 0004-MX22-MX BC H 1 13:01:56.10 19.144 01:19:49 Yes
86 Jack The Reaper Loft - CA 1266-AU22-FMT Pilita BB H 1 13:01:57.30 19.140 01:19:51 Yes
87 Kris Kaye Family Loft - CA 7202-AU22-FOYS 16317x1111 BCWF H 1 13:02:08.50 19.101 01:20:02 Yes
88 Lsu Loft - LA 0878-AU22-LSU BB H 1 13:02:12.50 19.087 01:20:06 Yes
89 Tepa sindicato - CA 3409-AU22-SFR BBWF C 1 13:02:29.70 19.028 01:20:23 Yes
90 3 Stars & A Sun - TX 0402-AU22-STAR BB H 2 13:02:54.80 18.942 01:20:48 Yes
91 Jazama.Loft - CA 1301-AU22-SFPC BB H 1 13:02:59.00 18.928 01:20:52 Yes
92 Baro Union Roger Fernndez Sal Perez - CA 21712-AU22-MAN BC H 1 13:03:00.80 18.922 01:20:54 Yes
93 Genesis Syndicate Loft - AZ 0608-AU22-GENE BB C 1 13:03:02.30 18.917 01:20:56 Yes
94 Los Tocayos loft - CA 0182-AU22-SALD BCWF H 1 13:03:12.30 18.883 01:21:06 Yes
95 Garibay Gomez Loft - CA 22305-AU22-OAK BC H 1 13:03:20.20 18.856 01:21:14 Yes
96 Meualam Loft - CA 1605-AU22-FOYS Toyota supra DC H 1 13:03:28.00 18.830 01:21:21 Yes
97 Ms. Loft - CA 0110-AU22-HERR Judi BBWF C 1 13:03:32.90 18.814 01:21:26 Yes
98 Mendoza Loft - CA 5425-AU22-JEDD BB 0 2 13:03:48.90 18.760 01:21:42 Yes
99 Vanstich - WA 0110-AU22-ARAM SAN MIGUEL BB H 1 13:03:55.10 18.740 01:21:48 Yes

There are 803 bird records

Note: These Race Results are unofficial and subject to change until verified by the Race Committee and declared final.

 

 


windy
Click for Forecast for 94533 from weatherUSA